Theta_e
305 305 304 304 304 304 304 303 302 301 300 300 298 301 298 297 295 305 307 307 303 294 287 290 287 285 289 294 293 294 292 292 294 292 294 291 293 291 289 288 287 290 288 288 288 289 286 288 288 289 290 290 293 295 295 296 295 296 294 294 296 295 290 288 289 292 294 296 298 298 299 298 294 295 296 295 293 295 294 293 296 291 293 291 292 288 294
305 304 304 304 304 304 303 303 302 301 301 300 300 298 295 296 297 299 306 306 303 291 283 285 288 288 292 291 291 295 294 293 292 292 293 291 291 289 289 289 290 288 291 290 287 289 283 290 290 289 291 290 296 295 296 297 295 294 294 292 297 288 291 290 285 285 287 289 293 293 296 297 294 293 295 296 296 297 297 297 299 290 292 292 290 285 291
304 304 304 304 304 304 303 303 302 301 301 301 301 295 295 295 298 298 301 304 299 289 292 288 287 287 286 287 287 292 294 296 296 295 294 295 293 291 287 288 291 290 293 291 292 293 289 289 293 293 292 292 295 296 296 297 296 297 298 297 299 292 291 290 283 280 277 277 279 282 286 290 294 295 295 296 295 295 294 289 292 287 293 293 290 289 299
304 304 304 304 304 304 303 302 301 301 301 301 302 298 296 295 288 296 298 297 295 295 297 293 288 287 286 285 291 293 291 295 297 296 295 296 295 292 291 291 289 288 289 287 289 289 294 291 291 292 292 293 294 295 296 296 297 299 299 298 299 293 295 293 290 287 285 288 290 294 295 293 290 292 294 294 296 297 296 295 291 288 291 291 294 295 297
304 304 304 304 304 304 303 302 301 301 300 300 301 299 296 297 290 290 288 295 294 291 294 292 293 287 289 284 291 288 292 294 296 298 291 296 293 293 291 290 284 285 285 287 285 289 290 294 294 293 294 295 295 296 296 297 298 300 298 299 298 294 291 293 294 293 292 293 293 295 294 292 293 292 292 294 294 295 295 290 289 296 292 288 295 298 296
304 304 304 304 304 304 303 302 301 300 300 300 302 296 298 292 294 295 295 288 288 289 290 293 290 292 292 287 290 290 289 291 289 296 297 298 298 290 291 290 291 290 286 285 283 289 289 291 289 295 297 295 295 293 295 295 298 298 297 299 297 294 288 293 294 292 293 294 294 294 294 294 294 294 294 293 294 294 293 293 295 296 290 289 296 298 297
304 304 304 304 304 304 303 302 301 301 300 301 301 296 297 295 294 294 297 288 291 290 291 292 292 290 293 290 290 285 289 289 294 293 295 297 296 294 286 287 288 286 290 287 288 288 287 287 294 294 295 296 293 291 292 295 297 297 297 297 300 296 292 295 294 293 293 294 294 295 293 294 294 294 294 295 294 294 295 295 296 296 296 297 298 299 299
304 304 304 304 304 304 303 302 301 301 299 301 297 293 291 288 287 289 293 290 289 290 290 291 292 292 295 290 293 290 288 286 292 297 295 291 296 299 293 293 291 289 288 287 284 286 288 291 290 298 298 296 295 292 293 292 296 297 295 296 300 296 290 293 295 292 292 294 295 295 294 293 293 294 295 295 295 295 295 296 296 297 297 298 298 298 298
304 304 304 304 304 304 303 303 301 300 301 297 294 293 294 293 294 292 286 285 292 293 292 291 291 290 293 291 293 293 293 293 295 295 299 297 296 299 296 296 290 296 289 286 287 291 290 293 296 300 299 293 297 293 293 296 292 294 294 296 299 298 291 295 294 288 290 294 294 295 295 294 293 293 293 294 294 293 295 293 297 296 295 297 297 295 296
304 304 304 304 304 304 303 303 302 300 300 297 294 290 296 296 298 296 290 285 291 290 292 292 292 289 293 293 293 292 293 296 296 291 298 301 301 301 300 300 299 298 296 292 296 301 302 301 303 304 304 304 302 301 301 297 294 293 294 297 296 296 294 290 291 287 288 294 294 294 295 293 290 290 294 295 296 296 297 297 298 299 300 295 291 295 300
303 304 304 304 304 304 303 302 302 301 300 295 293 292 293 291 290 290 291 284 291 293 291 290 289 292 294 294 293 295 295 296 296 291 291 299 301 304 303 301 298 297 298 301 306 306 306 307 306 307 305 304 302 302 301 300 299 296 296 296 296 297 294 291 296 287 288 294 293 295 291 283 285 297 300 298 296 296 295 295 297 300 301 298 300 300 303
303 303 303 304 304 304 303 303 302 302 300 300 299 295 295 296 293 293 289 285 287 293 291 288 288 291 292 293 294 294 294 295 295 298 295 298 300 303 304 302 301 294 304 308 307 307 308 308 305 305 305 303 302 301 300 298 297 298 299 296 295 294 293 291 296 289 288 292 291 287 282 285 302 302 302 300 300 298 297 298 299 299 301 301 300 300 302
303 303 304 304 304 303 303 303 303 302 302 301 299 294 297 298 294 290 288 285 285 290 288 290 293 291 292 294 293 294 296 297 298 299 299 299 300 302 304 302 301 303 307 306 306 306 302 299 298 300 299 301 300 300 299 297 296 298 299 298 296 291 291 292 291 293 291 289 287 281 284 298 300 303 302 305 301 300 299 297 299 301 301 301 300 301 302
303 303 303 304 304 304 303 303 303 303 302 302 299 297 297 297 292 290 289 285 285 290 291 290 294 292 292 291 292 293 296 296 297 301 299 303 300 301 303 304 305 307 307 308 306 305 298 298 291 293 293 295 295 293 295 297 297 295 296 298 298 296 295 293 290 296 286 289 288 286 297 296 300 299 300 298 297 298 296 290 295 302 302 301 300 301 303
303 303 303 303 303 304 303 303 303 302 302 302 301 299 298 298 297 293 292 289 283 287 291 286 292 292 290 291 293 292 294 294 294 294 299 303 301 303 304 305 307 307 310 307 301 301 297 294 288 287 289 287 283 287 295 293 298 300 300 299 299 299 294 296 291 289 292 289 288 287 287 284 291 301 304 305 307 307 304 299 295 303 303 304 302 302 303
303 302 302 303 303 304 303 303 303 302 302 302 301 298 298 299 299 296 292 288 286 282 293 295 294 291 290 291 294 293 291 289 291 293 296 299 299 301 304 305 307 310 308 305 305 299 295 291 288 287 285 287 291 290 287 293 291 297 302 301 300 301 300 298 292 290 291 289 287 286 284 288 298 301 304 305 307 307 306 297 291 300 303 305 305 303 304
302 302 302 302 303 304 303 303 303 303 302 301 299 298 297 301 297 293 291 289 288 284 293 293 294 295 293 292 294 292 292 288 290 288 288 293 296 299 301 302 307 308 305 304 302 298 294 291 294 293 293 294 289 287 293 291 290 291 296 299 296 296 295 292 291 289 290 289 288 287 290 289 298 304 306 306 309 310 301 287 288 302 304 305 305 304 305
302 301 301 302 303 303 303 303 303 303 302 302 301 298 297 301 300 297 292 289 286 286 292 296 292 289 288 290 288 293 293 292 291 292 290 294 297 299 296 299 299 305 307 300 299 295 293 292 289 290 288 296 297 295 285 291 288 288 289 292 292 292 292 292 289 290 290 287 289 292 292 297 305 305 307 305 307 305 290 285 293 309 312 312 310 308 308
301 301 301 302 303 303 303 303 304 303 303 302 302 299 298 300 300 299 294 289 287 284 292 295 294 292 294 294 292 292 292 292 292 288 289 292 296 296 295 298 301 294 302 298 300 293 293 293 300 296 292 292 296 287 296 289 288 293 294 291 293 292 291 290 291 289 290 291 289 290 293 300 305 309 306 305 301 289 289 304 310 314 313 314 312 312 313
301 301 301 301 302 303 303 304 303 303 303 303 303 297 298 300 301 299 292 287 288 286 289 291 292 290 294 291 290 290 292 292 292 291 292 290 298 296 295 291 299 298 297 301 293 296 293 291 294 298 294 295 297 298 293 294 298 294 293 295 292 293 289 289 289 291 292 290 289 287 285 296 309 309 304 303 295 299 309 313 316 315 315 315 315 313 314
300 301 301 302 302 303 303 303 303 303 303 303 302 298 296 301 301 301 299 294 288 284 288 294 293 293 294 293 294 293 291 289 292 290 292 292 295 294 288 286 292 293 291 294 290 291 291 291 295 295 299 297 299 298 290 291 294 299 297 295 294 299 290 290 291 295 288 289 286 287 296 305 309 309 298 307 312 314 316 316 313 317 316 316 316 316 316
300 300 301 302 302 302 303 303 303 303 303 303 302 301 295 300 300 301 300 298 290 287 290 294 295 294 296 296 296 296 294 293 294 295 291 290 296 294 294 295 296 297 300 300 297 293 297 296 298 294 293 297 301 293 297 290 288 296 298 297 288 297 294 297 290 298 291 291 294 303 307 308 310 311 310 312 315 317 317 319 317 316 316 320 316 316 318
300 300 301 301 302 302 303 303 303 303 303 303 302 299 295 298 299 302 300 293 294 294 296 295 296 297 298 298 300 300 300 299 298 297 297 292 291 295 294 294 297 302 301 304 297 296 296 294 292 298 296 299 295 294 297 297 293 296 292 298 298 302 302 303 300 297 302 302 302 305 307 309 312 312 312 312 314 317 319 318 315 317 318 318 317 317 317
300 301 301 301 302 302 303 303 303 303 303 303 303 300 298 300 300 299 297 294 290 286 291 296 292 290 295 296 299 302 300 299 299 300 302 299 291 293 299 299 302 302 303 303 304 297 296 295 297 298 293 300 300 295 292 291 292 301 298 295 297 302 301 299 295 300 294 292 308 307 309 310 310 311 312 313 314 315 317 320 318 318 319 318 319 319 318
300 301 300 301 301 302 303 303 303 302 303 303 303 303 302 300 301 299 294 286 287 286 282 287 291 297 299 300 301 301 302 303 304 302 301 300 297 295 296 306 306 302 301 302 303 302 297 293 297 297 292 302 301 293 300 295 296 302 294 296 299 297 304 298 298 298 294 296 306 310 310 310 310 311 312 312 314 314 315 318 319 319 320 320 320 321 319
300 300 300 300 301 302 302 303 303 303 303 303 303 300 298 298 301 301 297 295 293 289 283 284 292 299 300 300 299 301 304 304 303 303 301 301 300 300 300 302 302 307 305 304 301 296 295 294 294 294 294 294 304 296 297 301 299 303 298 299 303 304 302 293 301 297 300 304 307 309 312 311 312 311 313 314 314 315 316 316 318 320 319 319 319 320 319
299 299 299 300 300 301 301 302 303 303 303 303 302 302 300 300 302 298 294 293 289 286 287 285 292 297 299 297 300 302 303 303 304 303 302 302 300 301 300 299 299 300 299 298 302 296 295 295 295 294 299 297 302 301 303 301 301 295 297 305 306 303 299 303 302 295 295 297 304 310 299 298 309 312 315 316 316 316 318 318 318 318 318 319 318 318 319
299 299 299 300 300 300 301 302 303 303 303 303 302 301 301 299 300 301 300 297 292 287 287 288 289 294 299 297 302 303 302 303 303 302 302 302 302 301 300 299 300 299 299 297 293 293 293 293 297 298 296 302 301 298 306 304 304 302 302 304 306 303 304 303 298 295 295 305 310 312 311 312 311 314 314 317 318 319 316 316 317 318 317 318 318 318 318
299 299 299 300 300 300 301 301 302 302 303 302 301 300 299 301 303 303 301 301 298 292 289 290 293 293 290 296 300 300 302 303 303 302 301 301 302 302 300 300 299 300 301 300 297 296 296 296 298 297 298 308 299 296 301 294 294 293 301 305 306 308 309 307 307 306 307 310 311 312 311 309 312 314 316 316 318 317 316 317 318 318 318 319 318 317 318
300 300 300 301 301 301 301 301 302 302 302 302 299 296 291 295 301 301 301 300 298 295 287 286 283 289 299 298 298 299 300 301 301 302 301 301 301 302 302 301 301 302 302 298 297 294 297 298 296 304 306 309 300 297 294 298 296 300 304 306 306 308 309 310 311 308 307 311 312 313 314 316 316 314 315 316 316 316 315 316 318 317 317 318 318 318 318
300 301 302 302 302 302 302 301 302 302 302 299 296 289 287 286 296 301 300 302 301 295 290 289 286 291 291 299 299 298 299 299 301 301 302 303 303 303 304 304 303 303 297 298 298 298 297 295 296 299 304 305 301 297 297 298 295 299 304 305 305 306 308 311 312 313 312 312 313 314 315 315 315 314 314 315 315 316 316 316 316 313 316 317 317 318 317
301 301 302 302 302 302 302 302 302 302 300 297 293 292 293 296 300 301 301 301 300 294 288 284 286 288 289 293 299 301 300 300 301 302 304 304 304 304 304 302 302 304 299 298 298 297 296 297 296 299 298 306 300 297 299 298 294 297 303 305 306 307 309 312 312 312 312 314 313 312 311 312 313 312 311 315 315 317 316 315 316 317 314 317 317 318 318
300 300 301 301 302 302 302 302 301 300 299 300 302 302 301 299 300 301 301 300 297 293 293 286 283 287 286 293 298 301 299 300 301 301 299 305 303 304 302 303 304 303 305 298 295 294 300 296 296 294 300 303 295 295 299 296 299 303 303 304 305 308 310 312 313 313 313 312 312 310 307 309 310 311 313 315 314 315 315 314 313 315 316 315 315 316 317
300 301 301 301 301 302 301 300 300 299 299 298 297 298 302 301 301 300 302 300 295 294 291 286 284 285 286 297 293 298 299 294 296 297 292 304 302 301 298 301 303 296 301 297 298 298 298 295 295 295 300 294 299 295 291 298 302 302 303 304 307 309 310 311 312 311 312 312 312 311 312 314 313 312 312 312 312 313 313 313 313 312 312 312 313 314 315
300 300 301 301 301 301 299 299 301 299 297 297 299 302 302 301 301 299 301 298 289 287 287 287 287 284 286 288 288 295 300 297 294 296 292 297 303 298 301 295 298 293 296 305 297 296 295 295 302 294 292 301 295 291 293 298 300 302 302 302 306 307 308 307 309 310 310 310 311 310 312 313 312 311 310 310 310 311 311 311 312 311 310 310 311 313 314
300 300 301 301 300 299 301 300 300 297 296 297 298 300 298 299 300 302 302 301 296 289 287 287 287 285 287 283 285 291 300 295 298 298 297 296 297 301 298 296 292 297 303 296 293 299 292 302 294 290 297 291 290 294 297 300 300 302 302 302 304 306 307 308 309 308 307 308 308 309 310 310 310 309 310 310 310 310 310 309 309 309 309 309 310 312 313
300 301 301 300 299 300 297 296 299 300 298 298 298 299 299 300 303 303 300 297 299 298 290 288 286 288 290 288 290 292 297 289 297 294 297 292 291 294 295 293 291 294 294 293 293 293 297 301 294 290 291 290 292 299 300 301 302 301 301 304 305 310 311 310 309 306 303 303 307 309 309 308 309 308 308 308 308 309 308 306 307 306 305 306 307 309 312
301 301 299 297 296 290 290 294 299 299 298 297 298 297 298 297 290 290 291 289 293 294 291 291 286 291 294 290 286 298 296 292 297 291 292 294 291 292 294 292 292 292 288 291 294 302 297 293 292 291 291 298 300 300 302 303 303 304 304 305 305 310 310 309 309 307 305 304 304 306 306 307 307 309 307 307 307 307 307 308 308 308 308 307 307 308 310
300 299 298 297 293 290 290 296 299 297 298 299 299 294 291 293 291 287 288 290 290 287 291 290 289 294 293 291 293 301 296 290 290 293 289 296 290 288 293 289 291 291 289 290 293 299 290 291 292 291 290 296 297 302 302 306 307 307 307 307 306 309 310 310 311 312 308 306 307 307 307 306 305 306 307 307 308 309 308 308 308 308 308 308 309 310 311
298 293 291 291 291 293 298 301 298 298 297 293 295 292 288 292 288 286 292 287 288 290 291 288 295 294 295 292 291 291 300 294 288 289 290 292 298 289 292 292 293 290 285 287 290 297 289 286 290 289 289 295 297 301 302 304 306 307 308 307 306 307 311 310 311 311 310 310 310 310 311 310 310 308 308 307 306 306 306 307 308 309 309 309 308 312 312
296 294 294 291 295 297 297 299 299 298 293 290 291 290 289 286 290 290 289 286 287 288 294 293 294 294 296 296 295 290 299 300 298 298 292 288 298 295 289 287 293 288 287 287 292 292 291 288 288 288 289 296 299 301 304 305 306 307 308 307 306 306 310 310 310 310 310 309 309 309 310 310 310 309 309 309 308 307 307 307 307 309 311 311 312 311 311
297 296 297 298 297 297 297 296 294 290 291 292 286 282 287 288 290 289 289 284 286 288 292 294 289 291 291 293 293 295 295 301 297 293 291 288 293 290 289 291 292 287 285 291 295 292 290 286 287 288 295 298 301 302 304 305 305 306 307 308 308 309 310 311 310 309 310 309 309 310 309 309 310 309 310 310 310 309 309 308 308 310 311 311 311 311 311
299 299 297 294 293 292 292 288 291 290 282 284 282 279 285 282 286 285 286 290 293 291 291 297 295 297 298 299 295 298 295 300 293 292 290 289 294 292 289 288 287 284 289 295 291 288 286 286 286 291 297 299 301 302 304 305 305 306 306 307 309 310 310 309 309 308 309 309 311 310 310 311 311 310 310 311 311 310 310 309 310 311 311 311 311 311 311
298 297 292 290 288 289 290 280 292 287 283 284 281 277 281 281 284 286 285 287 290 289 293 290 291 291 287 296 293 292 293 296 294 293 292 294 291 288 288 285 287 291 295 290 289 286 287 289 291 296 299 300 301 302 303 304 305 306 306 306 307 308 309 309 309 308 308 309 310 310 310 310 310 309 310 311 310 309 309 310 312 312 311 312 310 310 310
291 289 289 287 284 288 285 278 290 285 279 283 285 284 284 281 285 287 286 290 291 289 293 293 293 292 289 295 294 294 292 290 296 290 288 291 288 290 287 286 291 292 288 286 287 288 288 287 295 298 299 298 300 301 302 303 304 305 306 307 307 308 308 307 307 307 307 307 308 308 308 308 308 308 308 309 310 310 309 310 311 310 311 311 309 309 309
288 286 286 281 277 284 285 281 284 282 286 286 285 287 288 289 288 288 292 293 291 292 291 292 292 293 290 294 290 290 293 293 290 291 292 289 285 284 290 294 292 287 286 286 284 284 286 293 295 297 298 299 299 301 302 303 304 306 306 306 306 306 307 307 307 306 306 307 307 307 307 307 307 307 308 310 310 310 311 311 312 312 311 310 309 308 308
287 289 287 286 280 284 287 281 283 286 288 288 290 289 289 289 290 291 292 292 291 293 293 294 294 293 290 290 291 292 293 293 288 292 292 286 285 288 292 288 283 285 283 283 284 286 289 295 296 298 298 298 299 300 301 303 304 305 306 307 306 306 306 306 305 306 306 307 306 306 306 306 306 307 308 308 309 311 310 312 312 312 310 309 309 309 308
284 289 287 279 279 284 282 286 290 290 291 290 290 291 291 291 290 290 293 293 292 293 292 292 291 292 291 296 293 289 291 292 288 290 291 288 290 287 286 285 285 287 287 285 286 293 293 295 296 296 297 298 298 298 300 302 304 305 306 306 306 306 305 305 306 306 306 306 305 305 305 305 305 305 305 306 307 308 310 310 311 311 311 310 308 308 307
289 287 283 283 285 285 285 289 288 287 289 290 290 290 290 290 289 291 293 293 292 292 294 292 290 290 287 291 289 289 287 292 285 286 290 287 284 282 283 281 283 283 288 290 291 293 294 295 296 296 297 297 297 298 299 301 302 303 305 306 307 307 307 306 306 307 307 306 306 305 305 305 305 305 305 305 304 305 308 310 310 310 309 309 307 306 306
287 286 287 286 285 287 290 290 288 286 289 289 290 289 290 289 289 291 295 292 293 292 293 293 292 288 288 288 285 287 287 290 288 289 287 284 285 285 284 281 284 285 288 292 292 293 295 295 295 295 295 296 297 298 298 299 298 301 304 306 307 307 307 308 307 307 307 306 306 306 306 305 304 304 304 304 305 305 306 306 308 309 308 308 307 306 305
289 287 287 291 285 285 287 282 283 283 285 287 288 288 289 288 289 290 294 292 292 291 289 287 288 287 286 286 285 282 285 290 286 285 286 285 287 285 284 283 285 290 293 294 294 294 294 294 293 293 294 295 296 297 298 299 299 301 303 305 306 307 308 308 307 307 307 307 307 301 306 307 308 308 307 307 306 306 305 305 305 306 308 308 307 307 307
285 283 285 288 289 289 289 288 288 287 287 288 288 290 290 288 291 292 294 292 291 287 286 289 287 285 283 282 284 287 289 287 285 286 284 287 288 285 284 285 287 290 291 293 293 293 293 293 293 292 293 293 293 294 294 296 298 299 300 302 304 305 305 306 306 306 306 306 306 306 306 307 307 308 307 307 306 305 304 304 304 307 307 308 308 308 307
Wind_Speed
18 19 20 21 21 21 21 22 20 20 20 10 8 6 2 3 3 5 4 10 12 6 5 5 4 5 6 7 13 13 11 9 11 11 8 7 3 3 5 3 3 5 2 2 8 4 4 8 7 5 8 10 11 17 20 19 19 14 10 12 10 3 8 8 9 10 11 13 15 16 15 15 15 14 14 14 16 16 13 10 8 10 10 6 4 5 3
17 18 20 20 21 21 21 20 20 20 18 11 7 4 3 3 3 2 5 10 8 4 4 4 5 7 9 10 14 13 10 9 10 7 6 4 2 4 2 3 9 8 5 6 8 4 4 7 9 4 5 5 10 23 20 20 14 13 10 8 11 6 8 9 10 10 11 8 9 12 13 14 13 13 16 17 17 18 14 11 10 9 16 13 8 7 5
17 18 20 21 21 20 20 19 19 20 17 12 4 4 3 4 3 3 3 7 7 4 3 5 9 10 10 11 14 12 7 6 10 11 10 7 7 4 3 4 4 6 7 9 9 8 9 4 7 5 4 5 8 19 20 20 14 12 8 3 9 5 8 9 11 12 14 13 14 15 17 18 14 16 19 19 18 18 13 12 11 9 12 18 10 6 3
17 19 20 20 20 19 18 17 18 20 19 16 5 2 3 3 3 2 5 5 5 7 9 9 6 8 7 9 8 11 10 9 8 7 11 9 7 7 5 4 5 8 8 7 5 5 7 9 3 5 6 7 6 11 20 19 15 15 5 7 8 3 6 8 9 10 10 11 11 11 12 11 13 15 17 18 16 17 16 12 10 12 10 13 16 11 6
17 16 19 19 21 19 18 16 18 21 21 18 5 3 1 3 2 3 3 3 7 7 6 5 4 6 6 5 7 8 12 12 8 2 4 1 4 4 7 4 1 3 2 5 4 4 6 7 9 8 3 7 7 12 17 19 18 11 9 10 5 5 6 8 7 8 9 12 12 11 14 15 18 19 20 19 18 18 19 15 15 13 10 13 13 18 12
17 17 17 19 20 19 18 17 17 20 22 23 7 3 3 2 3 2 2 4 3 5 0 6 10 11 7 4 4 9 12 12 9 10 6 9 5 3 3 8 9 5 4 1 2 1 3 2 4 4 4 6 8 9 15 15 14 9 10 11 8 6 5 4 5 7 5 3 6 8 15 17 17 19 18 20 19 20 21 20 17 14 12 11 10 14 17
17 18 18 19 19 19 18 17 17 19 21 18 5 3 3 3 2 1 4 4 4 5 10 13 10 12 9 3 4 5 8 13 12 8 10 9 4 8 5 4 7 8 7 6 6 4 3 4 6 1 4 4 10 10 12 11 14 14 11 11 7 5 5 2 4 5 6 6 7 7 12 13 15 19 19 20 21 22 21 18 17 18 14 13 9 10 14
17 17 18 19 19 17 17 16 15 17 22 12 6 7 4 3 3 1 6 6 10 9 7 7 9 8 6 5 7 5 4 7 11 12 8 9 10 2 7 7 3 8 9 7 4 4 6 8 3 3 5 2 8 10 10 8 12 14 12 9 8 6 3 4 2 5 6 7 7 9 11 12 14 16 18 19 20 21 21 19 18 18 16 13 15 12 10
16 16 18 19 19 16 15 16 15 15 19 6 6 6 5 2 2 3 5 9 4 5 5 7 6 6 6 6 10 12 12 14 15 17 12 11 11 10 13 10 3 8 9 9 10 13 12 12 11 9 7 3 3 5 8 9 13 16 12 10 6 7 2 2 3 3 5 4 4 7 11 13 14 16 18 19 20 20 19 17 17 17 16 17 15 13 12
15 16 17 18 18 15 14 15 14 13 16 8 6 5 6 3 1 3 3 4 5 5 5 6 5 2 6 7 12 10 15 15 15 13 6 5 9 10 11 13 12 11 7 5 8 8 8 11 12 10 7 7 7 5 2 6 13 11 11 8 7 7 5 2 2 3 2 3 5 7 10 10 11 15 19 22 20 16 14 15 16 16 14 13 13 13 9
13 15 16 18 16 14 14 14 13 12 10 9 8 7 6 5 5 5 3 5 3 2 6 4 3 3 7 10 14 14 14 15 13 11 7 10 11 10 12 13 10 9 9 12 14 11 12 11 12 9 8 8 7 4 4 4 6 13 9 8 4 5 6 3 1 2 2 3 1 8 11 11 13 12 17 17 19 19 19 17 18 16 13 12 10 9 10
14 15 16 17 17 14 13 12 11 11 9 6 7 7 5 4 5 4 4 4 5 5 5 4 6 6 11 14 12 14 15 16 15 11 15 13 16 14 11 9 8 8 11 16 16 15 12 5 2 4 6 6 6 7 5 7 7 7 8 7 6 6 4 3 3 3 2 2 3 7 11 10 3 4 7 18 17 18 20 17 18 19 19 18 16 15 16
14 15 16 17 17 15 12 11 10 10 9 7 6 7 7 4 4 3 4 4 6 7 8 7 6 11 12 14 16 14 15 14 13 14 10 11 13 11 9 9 10 12 15 16 17 15 7 3 5 5 8 9 9 8 9 10 12 9 7 9 6 3 3 2 4 3 3 3 4 7 6 5 3 4 3 0 12 17 17 18 19 19 20 19 18 20 20
13 15 15 16 16 15 11 11 9 9 8 7 6 6 6 5 4 3 3 4 8 6 7 12 9 5 9 14 14 16 14 12 14 8 7 6 10 11 11 10 12 13 12 11 12 9 3 2 2 5 8 9 9 9 11 11 9 11 10 8 7 8 3 4 4 2 4 2 5 3 4 3 5 3 5 8 11 14 14 11 14 16 16 18 19 22 21
12 13 15 16 16 15 12 10 10 9 7 7 6 5 6 4 4 4 3 3 7 10 7 5 8 11 13 12 11 12 10 12 13 12 14 7 6 9 12 13 13 12 10 9 6 6 3 3 2 6 7 7 8 9 10 7 5 4 4 7 7 6 8 1 4 1 2 4 3 4 3 5 5 7 2 3 6 4 13 11 11 13 16 17 19 19 18
12 13 13 14 15 15 12 10 10 8 6 6 6 5 4 4 4 4 4 4 5 7 3 4 9 11 11 9 10 9 8 10 10 11 9 8 11 15 13 15 14 10 9 9 5 4 3 2 1 3 6 6 8 8 8 8 6 6 4 5 4 5 4 4 4 5 4 3 3 2 3 3 3 6 4 1 3 5 6 10 13 12 17 18 18 19 17
12 13 13 14 15 16 13 10 10 8 6 4 6 6 5 2 5 4 4 4 4 10 13 15 9 7 8 8 5 4 7 7 9 8 7 10 14 15 15 17 12 10 11 9 5 4 1 1 3 2 3 5 9 6 9 9 9 10 12 10 10 7 3 2 5 4 4 3 4 2 1 2 5 6 5 4 3 1 8 9 8 10 15 16 17 17 16
12 12 13 13 14 15 13 11 10 9 6 2 5 5 6 2 3 5 4 5 7 9 6 4 6 7 7 7 8 9 7 6 6 6 7 12 11 9 14 13 14 13 12 6 6 2 2 2 2 0 4 2 2 5 8 10 9 8 11 11 8 7 3 2 6 5 3 4 3 1 3 3 5 6 5 3 1 4 7 8 2 6 4 4 8 11 11
12 12 12 12 14 15 13 11 11 10 10 6 7 7 5 3 3 4 5 5 5 7 4 7 9 12 12 9 10 9 7 8 7 7 7 6 4 10 17 4 7 8 11 6 5 3 3 2 2 3 1 4 4 4 5 7 8 9 9 9 4 2 0 2 4 6 4 2 2 0 2 5 3 4 4 4 5 5 3 5 3 4 5 3 1 2 4
12 12 12 12 13 14 14 12 12 10 11 9 5 7 7 4 5 4 6 7 6 12 14 14 10 14 8 9 9 8 7 8 6 6 5 7 9 15 8 2 4 7 8 8 4 6 4 4 5 3 2 2 2 4 4 3 4 7 9 5 5 1 4 3 3 2 4 2 1 2 1 2 6 4 3 1 2 3 5 6 4 4 4 3 2 2 3
13 13 13 13 12 13 14 15 14 11 10 10 7 7 7 3 5 6 6 7 9 12 9 2 3 9 10 13 13 13 12 11 8 7 7 9 8 7 6 4 6 5 5 6 6 6 4 4 6 3 2 3 3 3 2 5 6 4 1 5 2 5 4 2 2 1 4 2 1 1 2 3 3 4 2 2 5 6 6 7 4 7 6 5 4 4 1
14 14 14 13 12 13 14 15 14 12 11 11 9 7 7 3 5 6 7 7 9 11 11 15 16 18 19 18 17 15 16 16 17 12 10 8 5 5 5 5 6 3 2 4 4 2 4 4 5 3 3 2 3 2 3 3 5 6 2 5 3 4 4 4 1 3 2 3 2 4 5 3 3 4 3 5 5 4 5 6 7 7 8 6 6 7 5
13 13 14 13 13 13 13 14 13 12 12 11 9 6 8 8 7 4 6 9 10 13 15 16 14 15 16 18 18 16 16 15 14 12 11 8 6 4 6 5 6 2 3 4 4 4 5 7 4 5 4 2 3 4 3 3 2 8 5 3 2 2 2 1 4 3 3 6 5 5 6 3 2 1 3 5 4 4 4 7 7 8 8 8 7 7 6
14 13 13 13 13 14 13 13 12 12 12 10 9 9 9 7 8 6 7 8 9 12 11 7 4 4 4 3 2 8 11 12 14 14 10 9 7 3 5 6 3 2 1 4 3 3 4 3 5 5 4 4 6 2 2 1 2 2 3 4 4 3 2 2 4 2 2 1 5 3 2 1 1 2 2 4 4 3 4 4 7 7 7 9 8 7 7
14 14 14 13 13 14 14 13 13 12 11 10 10 9 9 9 6 5 6 7 5 5 7 9 11 10 7 6 10 10 9 10 10 12 11 12 14 9 5 7 2 3 4 3 2 3 2 3 4 3 4 4 5 2 3 3 3 5 2 2 4 4 5 3 4 1 4 2 1 0 2 1 1 2 2 3 1 2 3 3 3 6 6 7 7 6 6
14 14 14 14 13 15 15 14 14 12 9 10 12 10 9 9 7 5 6 8 7 5 6 7 7 5 9 14 12 9 7 7 10 13 15 16 17 15 13 10 8 4 3 1 2 3 4 3 3 4 6 2 2 3 3 5 5 2 1 1 0 2 6 3 5 4 4 5 6 4 2 3 5 4 1 1 1 2 3 2 1 4 7 7 8 8 8
14 14 14 14 14 14 15 13 13 12 12 12 10 9 9 9 8 8 8 6 6 5 7 8 10 11 9 17 16 9 7 8 8 10 13 16 16 15 13 11 10 8 8 7 2 1 3 5 3 6 5 3 3 5 4 3 3 2 2 3 3 5 6 3 3 3 3 5 4 5 3 4 4 4 4 3 3 2 2 4 4 4 6 7 8 8 8
14 14 14 14 14 14 15 14 12 10 10 12 11 10 9 10 9 8 7 8 8 5 8 10 12 15 18 18 9 7 9 8 8 10 11 13 15 14 12 11 10 8 7 4 3 3 4 5 5 0 2 3 4 2 4 4 4 4 4 2 0 2 1 4 3 3 2 1 4 6 3 2 6 5 1 2 2 2 4 5 6 6 6 6 8 8 8
14 13 14 14 15 15 15 14 13 10 10 11 10 10 9 5 4 3 5 6 8 7 7 11 14 11 6 9 15 10 5 5 7 9 10 11 13 13 12 12 10 8 7 5 4 4 5 5 4 5 3 4 4 4 4 3 0 2 3 3 1 1 3 4 4 3 3 3 2 3 2 4 5 5 1 3 3 3 6 6 6 7 7 6 8 7 7
14 14 14 14 15 15 15 14 12 12 11 10 9 7 5 3 1 1 3 5 5 3 4 7 7 3 8 7 7 10 11 10 9 9 11 11 10 11 11 10 10 8 7 4 3 4 3 4 3 4 2 2 4 3 3 3 2 1 5 2 3 2 2 3 4 4 3 5 4 3 2 3 7 9 3 3 3 4 4 6 6 6 7 6 7 7 7
16 16 16 16 16 16 16 16 14 12 10 8 5 4 3 2 4 3 5 5 5 3 4 4 10 8 8 5 7 11 15 13 9 8 8 8 9 9 8 8 7 8 6 5 4 6 3 4 2 1 1 2 3 3 5 5 3 2 4 3 4 5 4 3 2 3 3 2 0 1 1 3 6 7 6 3 3 3 4 5 5 6 6 6 7 7 7
16 16 16 16 17 17 17 16 16 13 9 7 8 6 3 4 3 5 4 4 3 3 2 7 7 4 5 6 5 10 10 12 10 6 4 3 4 4 6 8 5 8 5 3 3 3 4 4 4 4 4 1 2 6 6 6 3 4 3 1 3 4 3 3 3 2 2 3 1 4 4 5 4 3 4 4 4 4 6 6 5 5 4 5 6 6 7
17 17 18 18 19 19 19 18 14 9 8 7 9 11 9 7 2 3 4 4 3 3 2 3 5 6 6 7 11 6 7 8 2 4 2 3 1 4 4 5 4 5 6 4 2 2 1 1 1 3 2 2 2 3 6 5 5 4 5 5 3 3 3 4 3 5 5 6 8 2 3 4 6 10 13 12 4 4 5 5 4 2 2 2 3 3 4
18 18 19 20 20 20 18 14 7 2 3 3 3 4 3 6 7 10 6 4 3 2 1 3 4 7 9 8 7 4 9 8 5 5 3 3 1 5 2 5 6 3 6 6 3 3 2 1 4 2 2 2 2 3 5 7 7 6 6 2 2 2 3 4 4 3 3 6 6 6 3 4 7 8 8 3 5 4 3 3 2 2 2 2 3 3 3
18 19 20 21 21 18 10 6 3 3 1 1 1 4 6 5 5 2 5 4 2 2 1 2 2 6 9 5 5 4 8 8 5 6 4 2 1 4 1 3 3 3 3 5 4 4 4 2 1 2 3 2 2 3 4 7 8 5 3 3 3 3 5 5 5 4 5 8 9 7 2 5 6 7 6 6 5 3 3 2 2 1 2 2 2 3 2
18 19 20 20 18 6 2 2 2 2 3 2 3 4 3 8 7 6 7 7 5 4 2 2 2 5 6 8 7 4 9 8 5 6 4 3 3 3 3 2 5 2 4 3 3 4 3 2 1 4 2 2 4 5 6 6 7 6 4 4 2 4 2 3 6 4 8 7 10 6 5 3 4 5 5 5 5 3 3 3 3 2 2 2 2 2 2
17 18 20 17 7 4 2 0 1 2 4 3 7 12 12 7 3 2 4 4 5 3 4 3 6 7 5 6 4 3 7 7 7 6 4 2 4 2 2 3 3 1 2 3 5 5 1 2 3 4 3 5 5 5 6 6 6 6 6 4 2 2 7 8 8 8 9 5 5 5 3 3 2 2 3 3 3 3 3 4 4 4 4 4 3 2 3
17 16 7 4 2 2 1 2 1 4 7 8 7 5 3 4 2 1 1 2 2 3 3 4 7 6 4 4 5 5 6 5 7 5 3 2 4 1 0 2 1 1 4 3 1 3 1 2 3 4 4 7 8 9 6 4 4 3 4 4 2 5 7 10 9 8 6 1 4 5 5 5 5 6 5 6 5 4 4 4 4 4 3 4 4 3 2
12 6 3 2 2 1 2 3 3 7 7 4 4 3 3 2 2 2 3 2 1 3 3 4 5 3 5 7 8 4 3 6 7 4 4 4 3 2 1 2 2 2 2 4 2 2 3 3 2 2 5 7 5 5 5 3 3 2 4 3 2 5 7 7 8 9 10 9 6 8 10 9 9 8 5 4 3 3 4 4 4 3 3 3 3 2 2
5 5 3 4 2 3 4 3 2 5 3 2 2 3 2 2 3 1 2 2 2 2 2 3 3 5 5 7 8 7 1 4 6 7 6 7 2 3 1 3 0 2 3 4 1 2 3 3 1 2 3 3 5 6 5 5 4 4 4 2 3 5 7 6 3 3 6 7 5 5 10 10 6 7 6 6 6 6 5 3 3 3 2 4 3 2 3
4 5 5 3 6 6 7 8 6 3 2 2 2 2 1 2 2 0 1 3 2 0 3 4 4 5 2 5 5 6 1 2 4 4 3 4 1 2 2 3 1 2 3 3 2 1 2 3 2 4 2 5 5 5 5 3 4 5 4 4 3 6 7 5 3 3 6 8 7 6 5 4 5 6 6 7 6 6 5 5 5 4 3 4 4 4 3
5 6 7 9 9 9 8 4 2 2 2 1 1 2 1 1 0 2 2 3 1 1 2 1 6 6 8 8 7 6 5 0 3 2 2 3 0 2 3 2 1 2 3 1 1 1 2 3 3 2 5 6 5 4 4 5 6 6 5 4 1 3 7 8 8 9 9 9 8 4 4 2 3 2 2 4 4 4 5 5 5 4 4 5 4 4 4
8 7 4 4 2 2 1 3 2 1 2 2 2 2 2 3 1 2 0 0 1 2 1 1 4 6 6 4 6 4 4 2 3 2 2 2 0 1 3 2 1 4 1 2 2 1 3 3 4 1 5 5 5 5 5 6 5 4 4 3 2 2 6 8 8 8 7 7 4 4 3 3 3 3 2 2 4 5 5 4 4 4 5 5 6 6 6
3 2 2 1 2 1 2 2 2 1 1 1 2 2 2 3 3 2 2 0 3 3 4 7 7 8 6 3 6 3 2 4 3 2 3 2 2 2 1 3 4 0 2 3 2 5 4 2 3 5 6 5 4 6 7 7 6 4 3 3 1 2 5 7 7 7 6 4 4 5 5 5 6 5 4 3 3 5 5 5 4 4 5 6 7 7 6
3 1 1 1 2 1 1 1 2 2 3 2 1 2 1 2 1 2 3 3 3 5 6 6 7 7 9 7 3 3 2 2 1 2 2 3 4 4 4 4 3 2 3 4 4 4 2 3 3 4 8 8 8 8 7 6 6 6 5 1 4 4 5 6 6 6 5 5 5 5 6 6 6 6 5 5 4 3 4 5 5 5 6 6 7 7 5
1 2 2 2 2 2 2 2 1 2 1 0 1 1 3 3 3 4 3 2 5 5 6 7 8 7 9 4 2 4 1 2 3 1 0 1 1 4 3 4 2 4 3 4 5 5 4 3 5 6 8 9 9 9 8 7 6 5 5 2 4 4 3 3 4 4 6 6 7 7 7 6 7 6 6 6 5 5 5 5 3 4 6 7 7 7 6
1 1 1 1 3 2 1 2 1 1 1 1 1 2 2 4 4 5 4 3 5 5 7 7 7 7 6 5 3 2 2 2 3 1 1 2 2 1 1 2 4 3 5 6 6 5 2 7 6 7 8 10 10 10 9 7 5 4 3 2 1 2 2 2 5 7 8 8 8 7 6 5 5 6 6 7 7 7 6 5 4 4 5 5 6 6 5
3 1 1 2 2 1 2 1 1 3 2 3 2 2 3 3 5 5 4 4 5 6 8 8 8 5 6 3 3 5 5 2 3 4 1 2 1 2 2 2 4 3 3 5 3 5 5 7 8 9 9 9 10 11 10 8 8 6 4 2 1 2 3 4 6 8 8 7 7 6 6 5 4 4 6 7 7 6 5 5 5 5 6 6 6 5 4
2 1 2 2 1 1 2 2 3 4 3 2 2 4 4 5 6 6 5 5 6 6 7 7 6 3 6 2 3 4 4 1 3 1 2 2 2 2 2 4 3 4 1 3 5 6 7 7 8 9 9 9 9 9 9 9 9 8 6 4 3 3 0 3 6 7 6 6 6 6 6 5 5 6 6 6 6 6 5 5 5 5 5 6 5 2 2
2 2 2 3 3 3 2 4 5 5 3 3 4 5 4 6 6 5 4 6 6 6 6 5 2 2 4 3 4 3 4 2 2 2 3 4 2 2 2 7 4 3 2 6 6 7 7 8 8 9 9 9 9 9 9 10 9 8 7 6 4 2 3 3 3 4 3 4 4 5 6 5 5 6 5 5 6 6 5 4 3 4 4 3 1 1 3
1 2 2 3 3 3 3 4 4 5 5 6 5 5 5 6 6 6 5 6 6 6 5 4 2 3 4 3 4 4 0 2 3 4 3 3 0 1 3 5 6 8 6 5 5 6 6 7 8 8 10 10 9 10 9 9 9 9 8 6 4 2 3 4 4 4 4 3 4 3 3 4 5 5 4 3 6 5 5 5 3 2 3 4 3 4 3
1 3 2 0 2 4 5 6 6 6 6 6 6 5 5 6 5 6 5 6 6 5 4 2 3 3 3 4 2 3 3 3 3 3 4 0 2 2 3 5 6 6 6 5 5 4 5 6 7 9 9 10 11 10 10 9 9 8 8 8 7 6 7 7 7 7 7 7 6 5 5 5 4 3 3 3 3 2 3 4 5 3 2 4 4 4 2
Wind_Direction
356 356 355 353 354 353 351 352 348 345 345 353 357 315 309 352 28 77 140 160 174 195 258 249 216 236 257 294 286 279 279 270 290 296 289 296 233 243 230 265 296 265 260 261 269 267 272 261 232 212 186 170 186 166 186 184 172 184 177 183 159 3 204 187 175 168 180 196 178 200 216 202 202 209 220 209 208 205 213 212 189 206 200 200 199 216 164
354 354 355 354 355 353 353 351 348 343 351 347 328 338 1 306 293 141 121 170 194 234 283 303 300 300 292 286 286 287 272 271 284 287 290 259 246 235 235 249 213 263 266 287 290 327 292 212 232 208 255 155 159 170 183 180 176 191 171 184 157 189 191 196 166 166 168 171 180 192 210 218 208 202 209 214 214 208 217 225 217 213 213 213 219 217 215
353 350 353 355 355 355 354 353 346 341 343 345 326 344 327 267 216 251 163 176 192 226 254 290 302 302 309 311 305 317 306 264 270 300 300 284 258 258 232 240 285 257 277 283 283 268 257 299 248 306 205 115 145 170 186 184 184 201 158 208 163 236 174 193 175 169 172 179 184 187 188 201 203 211 203 213 214 208 201 215 203 223 214 215 220 223 194
356 351 349 352 356 358 358 354 345 340 342 342 305 317 282 356 340 91 164 178 209 245 258 263 272 298 318 315 316 332 322 334 318 288 285 278 251 231 276 222 222 257 281 276 268 282 259 232 233 199 170 154 167 172 192 191 199 188 159 200 191 244 196 212 204 187 185 193 192 185 196 189 206 202 212 205 215 212 210 218 217 214 209 216 217 222 215
355 351 347 348 354 357 1 358 347 342 338 340 323 257 240 274 330 346 337 288 211 242 256 253 281 303 322 293 328 314 333 328 326 43 290 166 239 266 215 203 193 266 251 291 295 247 263 243 256 264 247 161 137 173 192 200 207 173 174 224 221 230 200 210 241 243 226 195 194 163 189 195 201 202 204 210 206 211 212 210 216 211 219 224 214 213 229
352 353 348 349 351 355 1 3 350 343 337 330 291 287 354 293 58 337 43 304 310 321 268 349 317 305 303 265 291 297 319 322 333 324 265 284 270 269 199 206 221 243 230 233 296 301 273 251 257 203 190 170 151 166 200 202 197 195 206 205 228 203 195 183 244 221 236 235 191 182 199 203 196 202 201 207 207 210 215 218 222 219 222 232 205 217 217
350 352 352 350 351 351 0 7 355 343 339 322 347 327 67 24 333 239 5 295 296 279 296 307 307 302 291 261 252 270 314 318 326 315 308 302 285 178 275 233 216 226 236 245 273 290 280 191 221 11 96 192 164 164 175 213 189 201 205 202 210 251 228 186 227 223 234 217 221 213 213 210 209 205 204 204 205 210 216 219 221 227 232 235 240 202 221
348 349 350 351 352 351 360 8 1 348 334 322 38 36 6 35 1 338 339 279 281 279 281 291 305 314 324 314 338 324 278 271 319 328 318 306 306 308 260 296 260 217 212 214 223 258 282 312 319 29 332 213 199 161 185 164 194 195 205 198 186 236 130 47 255 233 222 226 226 220 219 216 219 217 213 211 210 211 211 215 218 225 236 235 240 245 236
350 348 347 351 354 352 360 7 7 351 330 13 6 47 34 345 320 308 313 310 280 291 296 313 317 308 345 342 337 327 323 328 331 315 306 275 290 313 321 332 239 261 195 208 237 229 236 253 271 300 294 243 146 193 183 194 180 192 196 198 170 212 237 165 240 253 224 193 247 242 217 217 222 217 215 215 211 211 209 214 211 214 218 223 232 234 236
351 347 345 349 355 354 359 6 12 358 329 7 358 16 5 336 328 312 306 291 297 298 309 297 295 311 3 335 324 324 316 318 329 323 312 301 293 302 319 328 326 322 311 257 256 287 273 255 265 269 272 258 257 263 281 208 186 186 193 189 200 196 230 213 223 240 226 141 290 231 192 196 217 223 215 209 210 215 213 218 217 220 221 220 219 231 236
351 345 344 347 355 356 358 5 16 7 353 20 4 4 0 359 331 325 302 298 266 284 322 295 301 310 317 320 319 318 312 317 326 324 303 313 315 325 320 320 324 316 322 334 328 301 287 281 276 261 235 228 221 223 220 251 233 188 191 177 204 191 224 249 254 266 258 345 225 169 175 197 216 214 214 213 212 206 213 212 215 219 216 229 234 244 243
347 345 344 346 350 352 353 1 17 19 355 359 341 356 3 324 314 281 321 310 300 316 303 296 297 295 312 313 315 310 315 320 317 313 297 300 295 305 309 315 322 307 336 323 315 309 295 244 251 219 201 192 191 189 195 196 183 196 190 182 178 209 234 261 268 281 267 58 166 181 196 205 81 35 200 207 212 211 215 221 218 219 220 229 237 244 246
343 345 341 342 345 349 348 352 12 21 356 341 340 349 355 339 297 320 313 299 290 318 319 309 302 289 287 305 316 315 315 308 315 317 291 288 294 309 328 327 315 315 319 315 313 308 307 200 159 172 150 156 160 164 177 176 188 193 197 189 191 230 232 270 257 278 281 242 201 198 198 83 86 70 43 302 214 213 213 222 222 218 220 222 230 236 240
342 346 338 339 340 348 344 346 359 15 357 330 328 343 342 335 332 324 322 315 293 292 306 294 277 288 319 318 314 311 317 329 333 325 311 308 299 311 329 329 325 315 311 313 300 305 310 237 158 150 138 152 144 161 165 168 181 186 205 213 196 225 288 249 280 317 305 300 205 221 98 147 144 156 160 179 193 198 208 219 223 220 218 217 224 232 237
344 343 340 335 339 342 345 340 350 5 2 327 314 332 343 348 316 309 313 282 293 296 269 271 344 330 318 307 319 323 333 340 338 339 320 294 278 328 335 337 328 319 312 305 338 308 327 302 169 139 137 158 164 155 153 151 128 156 195 221 233 209 228 167 270 301 297 301 219 210 191 197 120 46 50 175 359 275 214 214 231 216 216 216 224 233 234
342 341 338 336 335 336 343 342 338 352 11 334 304 323 328 346 316 286 285 283 308 308 82 346 331 313 306 304 310 315 333 330 341 323 326 348 345 340 343 345 330 319 314 308 291 305 334 288 179 161 158 151 147 149 177 149 167 194 191 190 134 177 215 222 257 291 296 281 258 223 180 82 356 38 36 66 336 317 199 210 235 220 216 212 220 227 233
341 339 338 336 334 332 340 335 330 329 8 338 321 316 321 346 316 317 290 272 235 253 301 310 305 284 280 298 311 321 354 329 339 343 328 333 334 327 332 337 332 339 341 319 320 308 314 245 256 85 85 140 167 178 159 180 170 184 197 205 196 183 156 269 259 271 265 292 268 166 68 63 26 20 23 1 341 277 188 195 224 197 199 207 212 222 228
336 335 336 332 331 329 337 334 320 325 345 12 299 308 305 330 293 301 269 261 281 279 268 268 326 312 311 335 307 310 303 298 303 299 273 289 302 342 335 338 346 346 344 331 331 337 3 25 293 243 138 113 31 154 194 179 175 184 195 206 211 214 145 221 259 278 302 289 271 302 123 83 37 18 12 53 154 223 195 198 86 42 68 154 201 216 221
328 333 331 328 327 327 331 332 324 324 325 329 318 298 265 268 267 274 293 279 261 264 268 314 305 283 282 288 264 269 271 287 299 302 309 315 33 346 314 355 358 341 342 339 346 16 338 59 297 345 320 141 192 192 131 187 180 183 185 200 221 233 268 176 261 262 281 323 296 59 356 40 357 54 30 131 168 176 196 45 334 342 47 62 74 184 182
323 329 326 322 323 321 325 328 329 321 311 328 326 307 297 263 245 265 297 292 285 275 284 279 265 268 275 276 289 287 299 287 273 275 301 302 350 345 311 127 8 350 343 353 36 19 1 17 5 319 306 18 74 353 206 154 163 177 186 206 234 178 208 212 192 304 282 270 338 26 138 80 22 336 139 122 306 21 352 319 54 11 43 46 102 182 183
323 322 321 322 320 320 322 324 333 329 315 322 334 312 308 220 236 254 268 287 292 295 298 172 261 267 275 273 269 274 272 267 288 300 308 301 322 318 356 20 320 332 341 347 359 15 2 342 356 343 335 287 3 244 205 161 155 70 162 171 233 354 267 219 120 191 306 227 167 52 13 65 18 328 56 28 17 343 344 326 55 38 41 31 49 102 121
321 316 317 322 319 320 321 321 325 325 319 320 323 309 290 294 211 258 270 271 267 257 268 295 297 286 277 270 268 262 259 260 263 270 283 289 290 290 307 301 282 280 301 318 347 352 356 345 306 327 334 331 257 283 9 199 176 138 76 139 175 210 252 357 357 98 250 17 332 319 351 352 339 310 334 321 330 332 329 350 33 32 38 10 39 49 67
315 312 317 317 320 320 320 316 319 321 315 319 317 304 299 302 289 260 265 278 271 273 281 280 275 271 265 261 251 245 241 238 251 254 246 260 283 240 247 241 252 280 291 346 358 323 343 322 308 332 294 6 347 314 200 271 136 159 173 163 44 191 303 41 279 271 266 265 254 308 301 311 344 322 281 289 324 319 355 28 47 47 44 35 38 35 40
310 310 313 316 318 319 321 319 317 313 310 315 313 308 302 301 300 293 268 268 288 301 294 231 272 284 278 277 211 217 222 229 226 233 233 229 250 270 209 226 248 296 257 62 58 354 327 291 306 328 318 18 318 296 314 165 51 358 183 167 191 139 150 181 246 44 307 198 139 189 236 217 250 275 271 262 254 293 344 45 58 62 61 66 56 44 38
309 312 314 314 316 317 320 321 318 308 307 310 304 295 289 283 271 262 285 300 302 316 301 307 286 268 283 290 287 274 246 230 221 220 216 215 227 244 296 60 212 304 319 27 358 283 296 295 309 284 312 36 334 15 45 300 104 16 231 148 154 178 163 215 226 225 254 328 307 260 105 247 250 242 192 195 175 16 339 25 46 65 66 73 86 83 64
311 313 313 309 312 314 315 319 317 311 304 303 301 299 297 290 293 281 270 273 271 276 288 295 288 295 297 299 295 300 292 249 226 214 212 214 220 235 259 287 287 258 273 199 266 292 304 278 250 283 307 23 11 320 345 10 311 336 282 146 2 97 163 212 182 218 230 273 260 236 165 169 169 180 215 112 84 72 40 327 218 138 103 92 75 70 74
310 310 308 308 312 315 313 313 317 319 316 307 296 302 292 289 279 266 260 260 289 266 217 260 288 294 317 309 301 297 261 244 240 226 220 220 224 229 237 249 263 274 272 276 253 282 267 259 258 262 271 339 329 291 306 276 285 311 263 125 159 187 212 165 196 203 213 238 219 185 184 182 178 168 139 124 124 156 152 146 117 86 83 87 98 92 74
307 307 305 305 306 307 310 311 315 316 311 309 303 299 295 285 282 270 244 229 218 287 312 300 302 302 308 275 276 297 292 263 239 234 230 226 223 226 229 233 240 249 248 244 264 216 229 253 272 294 255 271 278 234 212 251 262 239 229 113 168 260 319 256 214 215 208 182 233 195 255 132 164 118 15 118 141 139 107 93 85 85 82 68 68 85 94
304 303 304 304 304 305 306 311 315 316 320 311 311 305 291 273 285 258 233 215 226 265 280 284 283 276 302 341 319 303 300 284 265 249 245 242 228 220 222 225 225 231 237 244 259 286 275 266 284 294 322 32 298 291 299 270 305 292 59 62 323 4 314 276 310 325 257 313 293 232 290 233 140 102 105 95 58 63 86 69 65 58 51 56 73 67 59
300 301 301 302 305 305 304 304 306 305 313 313 312 306 293 177 177 239 170 190 198 241 290 315 310 289 329 311 293 307 308 310 297 272 251 243 237 223 219 215 220 218 230 230 231 251 258 270 270 259 250 174 268 308 278 299 297 300 82 57 38 309 238 280 308 298 315 343 311 267 279 157 110 108 69 343 43 6 52 57 31 39 49 41 53 59 56
301 302 305 307 306 306 305 305 305 302 301 295 292 287 269 233 124 131 162 175 185 247 284 263 271 299 292 249 275 302 316 314 312 302 274 251 234 224 213 207 216 202 215 224 232 248 286 262 264 203 163 239 280 277 296 301 291 296 84 24 10 358 2 19 357 324 310 350 55 240 197 108 112 125 137 143 94 86 97 78 61 47 22 46 50 43 43
305 305 309 312 312 311 307 305 303 305 291 270 236 228 332 16 68 138 170 214 175 236 271 307 306 295 310 297 306 311 303 301 293 281 235 185 187 187 196 202 206 200 213 230 233 249 240 254 270 282 293 84 237 279 280 271 272 290 3 353 25 357 31 23 42 85 96 56 118 160 145 122 61 344 118 97 108 96 95 84 67 63 37 40 52 54 50
307 309 310 310 310 310 308 309 308 299 276 287 307 305 305 272 225 167 212 202 229 252 297 289 288 301 288 320 321 328 350 318 274 322 352 165 172 166 189 195 197 194 196 242 211 240 242 256 234 263 198 146 243 265 267 262 267 301 311 330 2 8 40 65 83 105 105 57 10 12 183 150 81 48 15 337 345 78 90 90 85 91 106 110 88 78 74
306 307 308 308 308 310 313 312 305 272 210 211 206 211 205 202 206 213 239 216 263 288 274 280 295 309 302 305 292 68 14 345 320 11 337 115 28 272 191 169 188 212 182 215 222 245 211 232 249 248 127 207 227 272 262 269 281 288 300 327 78 151 130 105 91 98 44 26 13 15 335 125 117 115 139 180 309 335 48 65 98 111 96 88 72 57 47
305 307 308 307 310 313 310 283 197 213 221 211 158 126 90 75 6 13 228 223 259 235 234 233 238 306 319 322 311 26 6 323 332 2 310 341 14 292 267 234 151 238 161 210 253 253 249 234 17 250 247 114 200 238 257 263 262 268 287 277 188 210 201 170 108 75 43 13 360 18 35 144 143 155 162 175 167 155 116 108 93 107 118 87 71 69 49
309 309 308 308 308 297 170 195 206 156 187 162 114 80 344 301 277 250 230 225 243 305 283 289 273 294 318 321 333 348 343 313 334 314 293 294 262 169 270 279 242 181 99 185 252 214 236 100 208 246 128 236 244 251 268 277 280 288 310 304 279 243 286 143 144 103 68 28 337 345 350 302 206 151 152 147 140 133 121 109 103 86 79 76 62 53 43
309 310 307 295 270 197 227 154 171 243 39 1 325 307 297 284 204 214 181 214 213 242 275 296 282 281 303 312 307 289 323 320 342 327 326 309 321 325 263 227 247 95 213 224 228 242 136 88 262 270 230 245 258 266 285 305 311 310 316 307 334 151 124 110 114 114 117 166 270 302 308 305 309 186 148 132 128 154 147 107 85 76 67 55 43 29 39
307 300 300 303 261 245 208 189 155 36 337 288 269 253 166 186 184 129 166 218 214 206 224 232 256 282 292 287 290 349 326 315 340 325 315 19 312 249 178 272 14 296 258 258 94 43 84 210 229 260 267 261 275 284 311 323 317 303 280 275 227 176 138 128 131 124 122 183 274 257 263 251 230 228 193 168 178 165 120 106 99 81 72 59 41 12 357
289 307 289 308 297 295 354 41 45 317 286 259 228 232 204 193 212 210 198 180 172 216 203 231 275 290 291 288 295 290 304 316 305 303 294 19 332 298 313 287 111 261 268 259 167 176 246 214 220 244 259 253 251 52 19 340 314 294 295 288 228 179 157 153 165 163 170 191 194 208 208 208 206 194 186 161 144 133 135 135 124 108 86 65 47 17 6
346 341 344 325 307 3 345 330 329 308 247 213 182 239 228 190 232 263 142 221 207 195 199 248 263 296 294 304 314 312 179 281 318 318 326 307 193 281 359 288 34 275 263 268 96 170 275 280 178 251 270 45 45 21 354 352 341 6 342 339 172 182 188 174 150 188 202 219 229 219 215 237 218 182 175 173 176 168 160 153 125 116 96 67 27 14 42
350 337 319 314 328 317 315 316 304 229 237 203 183 217 254 225 213 296 221 255 280 108 189 300 289 293 217 227 274 289 51 237 272 289 285 274 13 296 271 271 37 288 266 263 95 243 235 263 264 266 26 38 1 2 348 358 17 6 21 14 136 165 173 159 135 293 267 253 259 270 232 220 201 186 183 187 185 181 166 156 145 120 109 112 104 83 79
339 311 299 293 290 287 293 261 231 229 218 242 242 223 208 287 144 217 228 280 31 341 209 274 310 334 321 320 306 309 295 232 296 277 282 282 182 261 288 287 203 260 270 45 7 250 257 256 262 255 64 33 22 356 7 11 17 3 18 30 64 174 176 184 184 203 225 246 263 224 177 166 127 125 164 191 189 175 158 149 135 125 102 92 103 113 101
273 259 297 293 289 243 237 243 181 239 218 198 205 248 189 222 229 297 268 174 103 267 7 250 281 305 278 243 273 226 273 349 290 239 242 276 313 237 266 261 235 240 245 38 250 247 248 253 256 48 37 25 10 6 6 8 4 11 24 10 43 164 182 183 185 194 211 231 202 154 141 123 95 75 67 147 148 129 117 111 119 125 126 126 116 112 105
285 257 249 227 267 223 211 258 156 218 235 209 216 220 206 217 192 180 243 48 20 287 9 337 334 333 323 351 309 311 259 204 217 262 254 257 283 266 249 243 229 305 43 251 240 242 248 277 360 43 23 12 2 4 354 348 346 349 60 80 110 150 152 150 152 148 143 139 115 109 104 102 103 102 99 90 149 152 134 121 106 116 126 130 122 110 104
296 252 227 244 238 205 164 302 184 192 244 206 241 271 240 250 297 287 316 32 314 317 323 310 320 317 304 320 281 225 250 317 126 264 292 318 282 266 252 273 319 297 251 251 243 246 250 240 94 49 19 358 352 343 343 333 333 329 329 334 124 121 130 136 128 122 119 120 116 117 108 103 99 93 86 84 74 87 131 131 133 145 146 133 123 114 97
318 332 322 282 307 273 233 252 175 234 175 206 262 351 298 317 319 299 357 352 309 314 317 325 312 305 297 309 286 318 263 265 278 251 3 68 284 277 330 327 294 261 260 254 249 249 254 49 36 13 1 347 338 333 330 326 320 311 289 232 139 126 118 128 138 136 132 129 125 120 114 109 100 93 86 83 89 91 92 102 133 147 140 139 127 115 102
245 220 267 291 272 253 223 257 277 326 354 310 339 337 332 329 335 312 312 312 297 316 309 305 298 292 295 302 281 238 228 236 270 254 190 250 238 265 296 290 266 247 249 251 251 261 343 39 12 3 350 344 334 332 327 324 320 313 303 318 167 155 137 157 152 142 130 129 124 120 111 101 99 106 105 97 88 85 87 98 109 137 151 136 117 116 110
299 325 282 252 251 285 239 236 17 258 228 278 298 325 316 309 292 286 299 318 306 297 300 312 309 303 271 224 229 279 293 270 273 255 256 293 265 266 250 224 244 251 249 261 270 27 360 6 358 350 343 339 336 332 330 330 331 328 314 282 266 185 165 160 150 143 144 137 124 116 111 108 106 103 101 104 102 92 88 89 108 130 132 123 113 113 106
321 287 274 294 312 309 294 344 311 281 268 221 259 277 284 291 295 300 316 313 296 301 307 299 303 294 279 289 266 270 266 230 264 264 167 193 238 267 279 259 274 268 52 6 3 20 360 357 352 344 339 341 343 338 331 330 334 327 321 325 348 357 355 149 144 147 149 139 132 127 118 107 115 117 121 117 104 98 102 104 107 118 140 140 132 139 174
237 219 208 241 260 243 243 273 269 274 264 262 272 289 311 298 297 308 327 306 312 303 293 268 209 258 289 298 277 269 266 257 270 292 280 264 252 250 249 264 258 279 17 24 15 8 6 3 358 354 354 343 345 342 345 340 337 330 332 332 338 353 15 26 131 146 155 143 140 129 129 139 144 144 140 108 98 115 114 111 121 132 137 151 183 245 50
202 267 284 311 279 300 335 297 304 297 294 296 307 305 313 304 311 311 346 316 303 297 274 283 312 294 297 278 266 260 301 11 289 262 270 284 22 281 284 304 360 10 26 40 28 22 20 13 6 0 360 1 353 351 353 351 348 344 342 341 350 7 52 60 77 106 94 79 73 83 94 55 40 47 66 124 131 120 111 115 101 127 152 149 138 135 109
239 244 253 252 264 274 279 294 286 278 290 300 299 306 311 301 314 314 326 305 299 286 288 312 289 281 270 264 301 321 307 272 255 278 268 48 39 338 357 342 336 346 340 347 18 23 23 19 9 360 358 359 354 349 347 352 1 7 3 11 19 36 47 53 57 64 73 72 64 66 70 61 63 74 94 110 139 155 123 107 93 76 106 165 165 156 134